Lapse_Rate
6.6 6.6 6.6 6.4 6.1 6.1 5.9 5.7 5.6 5.6 5.7 5.7 5.6 5.6 5.5 5.4 5.4 5.3 5.1 5.1 5.2 5.2 5.3 5.7 5.9 6.1 6.1 6.2 6.3 6.2 6.1 6.3 6.5
7.0 6.8 6.7 6.6 6.1 6.3 6.2 6.0 5.7 5.6 5.7 5.7 5.7 5.5 5.4 5.4 5.4 5.2 5.2 5.3 5.3 5.4 5.5 5.7 5.9 6.1 6.3 6.4 6.1 6.1 6.2 6.4 6.4
7.1 6.8 6.5 6.8 6.2 6.3 6.2 6.0 5.9 5.8 5.8 5.9 5.9 5.9 5.6 5.5 5.6 5.5 5.5 5.4 5.5 5.5 5.6 5.9 6.0 6.0 6.3 6.2 6.1 6.2 6.3 6.5 6.4
6.8 7.1 6.6 6.3 6.3 6.2 6.1 6.2 6.0 5.9 5.8 6.1 6.1 6.0 6.0 5.9 5.9 5.7 5.5 5.5 5.6 5.7 5.7 6.0 6.0 6.1 6.1 6.2 6.3 6.4 6.6 6.4 6.4
6.9 6.7 6.9 6.6 6.2 6.4 6.1 6.2 6.2 6.2 6.0 6.0 6.1 6.1 6.1 6.1 6.2 5.9 5.7 5.8 5.8 5.8 5.8 6.0 6.1 6.0 6.2 6.2 6.3 6.5 6.5 6.6 6.3
6.6 6.9 6.5 6.7 6.6 6.3 6.2 6.2 6.1 6.2 6.3 6.0 6.0 6.0 6.0 6.2 6.3 6.1 5.9 6.0 6.0 6.0 6.1 6.1 6.1 6.0 6.1 6.2 6.3 6.5 6.6 6.5 6.3
6.6 6.8 6.6 6.5 6.8 6.6 6.4 6.3 6.2 6.4 6.2 6.1 6.0 5.9 5.9 6.2 6.2 6.3 6.0 6.1 6.1 6.1 6.2 6.3 6.1 6.1 6.2 6.2 6.3 6.4 6.6 6.5 6.5
6.4 6.5 6.6 6.5 6.2 6.7 6.6 6.5 6.1 6.1 6.1 5.7 5.9 6.0 5.9 5.9 6.2 6.2 6.0 5.9 6.0 5.9 5.4 6.2 6.2 6.2 6.2 6.2 6.3 6.3 6.3 6.4 6.3
6.5 6.3 6.3 6.3 6.2 6.0 6.4 6.3 6.2 6.1 5.7 5.4 5.7 6.0 6.0 6.0 6.0 6.1 6.0 5.6 5.2 5.3 5.2 5.0 5.7 6.0 6.2 6.3 6.3 6.2 6.3 6.3 6.2
6.3 6.5 6.4 6.3 6.2 6.3 6.1 6.1 6.3 6.2 6.0 5.6 6.1 5.8 6.0 6.1 6.2 6.1 6.0 5.7 5.1 5.4 5.3 5.3 5.2 5.6 5.9 6.2 6.3 6.2 6.2 6.2 6.1
6.1 6.1 6.3 6.4 6.2 6.2 6.0 6.1 6.0 6.1 5.9 6.0 6.0 5.7 6.1 5.8 6.0 6.2 6.0 5.7 5.2 5.3 5.2 5.4 5.3 5.2 5.4 5.8 6.1 6.3 6.3 6.1 6.2
5.8 6.0 6.0 6.1 6.0 5.8 5.8 5.8 5.9 5.8 5.7 6.2 5.8 5.9 6.0 6.5 6.0 6.2 6.1 5.6 5.2 5.3 5.5 5.5 5.3 5.4 5.3 5.2 5.6 6.1 6.2 6.1 6.1
5.5 5.6 5.8 6.0 6.0 5.5 5.8 5.7 5.4 5.6 5.8 5.9 6.2 6.4 5.9 6.0 6.3 6.1 6.0 5.9 5.5 5.1 5.2 5.5 5.6 5.4 5.3 5.2 5.2 5.4 6.0 6.1 6.2
5.6 5.5 5.6 5.6 5.7 5.5 5.8 5.1 5.8 5.3 5.3 5.5 5.6 5.6 5.7 5.6 5.7 6.2 5.9 5.7 5.7 5.4 5.1 5.3 5.3 5.4 5.4 5.5 5.3 5.2 5.6 5.9 6.2
6.0 5.7 5.4 5.5 5.5 5.6 6.0 6.0 5.6 5.5 5.6 5.5 5.4 5.2 5.7 5.5 5.4 5.4 5.9 5.8 5.8 5.5 5.4 5.1 4.9 5.1 5.3 5.4 5.5 5.3 5.4 5.6 6.0
5.4 5.6 5.6 5.6 5.6 5.7 5.6 5.8 5.2 5.5 5.7 5.8 5.5 5.2 5.6 5.7 5.4 5.3 5.3 5.7 5.8 5.6 5.5 5.4 5.2 4.9 5.2 5.3 5.3 5.3 5.4 5.3 5.5
5.5 5.7 5.6 5.6 5.8 5.8 5.9 5.8 5.9 5.7 5.6 5.8 5.6 5.2 5.4 5.3 5.4 5.5 5.4 5.4 5.3 5.7 5.1 5.1 5.0 5.1 5.1 5.0 5.1 5.1 5.2 5.3 5.4
5.9 6.0 5.9 5.9 5.8 5.8 5.8 5.8 5.8 5.8 5.4 5.4 5.7 5.6 5.4 5.3 5.6 5.9 5.6 5.5 5.7 5.4 5.5 5.4 5.1 5.1 5.1 5.0 5.1 5.0 5.0 5.1 5.2
5.8 5.9 5.9 6.0 6.0 5.9 5.7 5.7 5.7 5.7 5.7 5.7 5.2 5.3 5.5 5.7 5.6 5.8 5.7 5.5 5.7 5.7 5.8 5.6 5.1 4.8 4.6 4.8 5.1 5.2 5.2 5.2 5.1
5.6 5.7 6.0 6.0 5.8 6.0 6.0 6.0 5.9 5.8 5.8 5.3 5.2 5.1 5.4 5.4 5.3 5.5 5.9 5.5 5.3 5.5 5.4 5.3 5.1 4.8 4.9 4.9 4.7 5.0 5.2 5.4 5.2
Wind_Speed
7 7 9 9 10 13 13 14 17 14 14 13 15 16 12 16 15 17 16 14 13 14 15 15 15 14 13 15 21 21 18 18 20
10 8 8 12 12 11 12 11 16 17 14 12 12 9 8 13 15 15 17 15 12 11 14 14 13 15 16 18 18 20 19 20 20
8 12 12 12 13 13 12 11 16 16 14 11 8 6 6 6 12 15 15 18 13 13 13 14 16 14 19 19 19 17 20 19 19
9 12 14 16 15 16 15 13 16 15 12 9 7 6 2 3 11 14 16 17 14 12 13 17 14 16 18 18 17 16 19 20 19
10 12 14 18 19 17 16 14 13 15 14 11 10 8 6 2 9 18 18 18 14 14 15 17 18 18 16 14 13 15 18 18 19
12 14 15 18 19 20 18 17 14 13 12 12 11 9 9 3 11 16 20 15 16 16 17 17 19 15 14 14 15 15 18 18 19
13 16 18 20 21 20 19 18 17 13 11 10 11 11 12 5 9 18 22 18 17 17 19 20 19 18 16 17 19 17 19 18 17
9 10 14 14 20 15 16 15 13 10 11 10 12 13 13 10 13 16 21 19 18 19 24 22 21 20 19 19 21 21 19 18 14
6 6 8 10 11 10 11 10 11 16 14 13 12 13 12 13 15 16 20 19 20 21 22 22 22 21 21 24 22 21 18 18 14
6 4 5 8 11 11 8 8 9 10 9 12 11 11 13 13 13 15 22 20 19 21 22 24 24 23 22 24 25 24 20 18 18
4 4 5 5 9 8 8 7 5 7 9 10 15 15 15 16 14 14 18 21 20 19 21 24 26 24 24 24 23 24 23 20 18
6 4 4 8 12 12 8 4 6 6 6 7 6 12 13 15 15 15 15 17 22 23 20 23 27 27 26 25 23 22 21 22 21
5 2 4 9 10 10 7 7 8 6 6 7 8 8 9 13 15 16 15 14 15 21 23 24 27 27 27 26 25 23 21 23 23
10 5 4 6 9 8 9 10 9 8 9 9 7 6 8 9 13 14 16 17 16 15 23 24 26 28 27 26 27 26 23 23 24
14 10 10 10 3 6 5 10 8 8 9 8 7 6 5 6 9 10 15 16 16 16 16 18 19 28 27 26 26 26 27 26 24
16 10 9 10 7 6 6 6 12 11 9 6 2 3 4 5 7 7 8 9 15 16 17 17 15 19 25 26 26 27 29 30 28
17 12 9 9 8 8 9 8 7 9 10 8 3 7 5 4 4 4 8 10 12 13 15 15 16 16 17 20 26 26 28 30 30
18 16 12 9 8 7 8 8 12 8 9 15 4 3 6 4 4 7 6 9 6 8 14 15 16 16 17 19 22 28 29 30 31
17 17 15 11 7 10 9 9 9 9 6 4 6 1 2 4 3 7 8 9 9 9 7 11 15 17 17 21 22 25 27 25 28
17 16 15 11 8 10 11 11 12 9 7 3 2 2 4 2 3 4 7 8 8 8 9 9 11 15 18 17 21 30 29 27 29
Wind_Direction
170 152 140 135 131 137 140 142 135 134 131 136 138 136 124 120 119 116 116 107 117 116 113 118 120 124 132 120 115 112 113 109 113
172 168 164 155 145 149 154 161 147 139 137 146 155 137 121 131 122 123 124 120 120 122 126 125 127 136 135 122 108 109 112 115 106
177 179 172 169 160 158 157 160 140 139 150 153 173 168 116 139 134 134 135 141 139 139 141 142 140 146 127 129 121 128 129 117 108
223 197 178 172 174 164 159 161 144 148 159 166 189 208 189 107 156 143 151 146 149 159 149 158 147 133 129 121 122 122 134 126 114
229 220 207 182 176 171 164 155 152 155 164 184 205 218 240 221 173 155 167 162 168 164 145 141 138 124 121 126 127 133 128 128 126
236 222 210 205 186 171 166 160 164 168 172 185 211 230 243 231 176 174 171 170 177 174 175 163 147 137 130 144 150 146 135 127 124
231 224 214 208 199 185 169 168 170 173 187 199 215 229 245 239 195 181 171 170 180 181 185 174 160 155 160 163 151 141 135 133 135
218 211 211 204 194 186 181 173 164 167 180 205 212 223 233 233 208 181 178 178 186 181 172 168 161 161 170 171 160 146 141 132 134
188 175 172 166 170 177 174 178 173 177 196 200 212 209 222 225 195 176 181 186 195 184 184 174 172 165 163 156 156 153 159 145 137
168 184 185 178 168 180 180 193 194 200 188 208 201 204 212 215 183 174 184 190 195 192 188 184 179 174 175 168 166 162 165 155 152
175 175 203 191 180 192 195 205 205 210 209 212 214 212 202 191 179 173 187 197 198 194 196 192 185 185 185 183 179 172 166 157 165
187 191 201 200 189 179 178 237 248 229 223 221 241 217 186 177 175 174 183 193 201 193 202 199 197 189 190 188 188 186 177 165 174
27 279 248 219 209 197 211 181 211 237 227 233 223 210 180 175 176 175 186 193 204 207 200 199 203 198 196 193 190 190 185 174 181
18 8 302 279 241 207 203 203 207 217 229 236 228 200 189 177 175 184 185 194 199 201 209 199 202 202 205 204 197 193 192 187 188
22 7 355 341 311 260 245 211 215 221 217 233 231 196 194 183 185 186 185 194 202 206 204 205 204 201 202 210 210 198 194 195 198
23 12 1 354 343 333 275 230 211 226 222 219 224 278 245 208 196 187 188 190 204 202 203 198 203 205 205 209 210 209 201 197 200
24 15 2 359 351 13 352 308 252 239 217 213 217 216 227 231 207 208 201 194 196 200 204 200 200 201 201 209 212 211 209 206 203
26 23 14 11 13 4 352 345 330 257 235 216 173 170 213 168 185 205 205 206 194 201 198 195 201 205 203 207 215 217 213 213 214
27 26 22 21 18 13 360 5 354 331 277 277 220 244 181 185 162 210 209 215 212 207 201 199 203 201 205 210 210 219 222 220 223
25 25 26 28 21 17 10 10 11 1 347 338 18 227 276 115 139 177 195 211 221 211 211 202 200 201 205 211 214 218 222 224 229